datetime,flow
1990-10-02,0.0
1990-10-03,0.0
1990-10-04,0.0
1990-10-05,0.0
1990-10-06,0.0
1990-10-07,0.0
1990-10-08,0.0
1990-10-09,0.0
1990-10-10,0.0
1990-10-11,0.0
1990-10-12,0.0
1990-10-13,0.0
1990-10-14,0.0
1990-10-15,0.0
1990-10-16,0.0
1990-10-17,0.0
1990-10-18,0.0
1990-10-19,0.0
1990-10-20,0.0
1990-10-21,0.0
1990-10-22,0.0
1990-10-23,0.0
1990-10-24,0.0
1990-10-25,0.0
1990-10-26,0.0
1990-10-27,0.0
1990-10-28,0.0
1990-10-29,0.0
1990-10-30,0.0
1990-10-31,0.0
1990-11-01,0.0
1990-11-02,0.0
1990-11-03,0.0
1990-11-04,0.0
1990-11-05,0.0
1990-11-06,0.0
1990-11-07,0.0
1990-11-08,0.0
1990-11-09,0.0
1990-11-10,0.0
1990-11-11,0.0
1990-11-12,0.0
1990-11-13,0.0
1990-11-14,0.0
1990-11-15,0.0
1990-11-16,0.0
1990-11-17,0.0
1990-11-18,0.0
1990-11-19,0.0
1990-11-20,0.0
1990-11-21,0.0
1990-11-22,0.0
1990-11-23,0.0
1990-11-24,0.0
1990-11-25,0.0
1990-11-26,0.0
1990-11-27,29.24
1990-11-28,70.08
1990-11-29,70.08
1990-11-30,70.08
1990-12-01,70.08
1990-12-02,70.08
1990-12-03,78.14
1990-12-04,90.24
1990-12-05,90.24
1990-12-06,90.24
1990-12-07,90.24
1990-12-08,90.24
1990-12-09,90.24
1990-12-10,90.24
1990-12-11,90.24
1990-12-12,90.24
1990-12-13,90.24
1990-12-14,90.24
1990-12-15,90.24
1990-12-16,90.24
1990-12-17,90.24
1990-12-18,90.24
1990-12-19,90.24
1990-12-20,90.24
1990-12-21,90.24
1990-12-22,90.24
1990-12-23,90.24
1990-12-24,90.24
1990-12-25,90.24
1990-12-26,90.24
1990-12-27,90.24
1990-12-28,90.24
1990-12-29,90.24
1990-12-30,90.24
1990-12-31,90.24
1991-01-01,90.24
1991-01-02,90.24
1991-01-03,90.24
1991-01-04,90.24
1991-01-05,90.24
1991-01-06,90.24
1991-01-07,90.24
1991-01-08,90.24
1991-01-09,90.24
1991-01-10,90.24
1991-01-11,90.24
1991-01-12,90.24
1991-01-13,90.24
1991-01-14,90.24
1991-01-15,90.24
1991-01-16,90.24
1991-01-17,90.24
1991-01-18,90.24
1991-01-19,90.24
1991-01-20,90.24
1991-01-21,90.24
1991-01-22,90.24
1991-01-23,90.24
1991-01-24,90.24
1991-01-25,90.24
1991-01-26,90.24
1991-01-27,90.24
1991-01-28,90.24
1991-01-29,90.24
1991-01-30,90.24
1991-01-31,90.24
1991-02-01,90.24
1991-02-02,90.24
1991-02-03,90.24
1991-02-04,90.24
1991-02-05,90.24
1991-02-06,90.24
1991-02-07,90.24
1991-02-08,90.24
1991-02-09,90.24
1991-02-10,90.24
1991-02-11,90.24
1991-02-12,90.24
1991-02-13,90.24
1991-02-14,90.24
1991-02-15,30.25
1991-02-16,54.45
1991-02-17,90.24
1991-02-18,90.24
1991-02-19,90.24
1991-02-20,90.24
1991-02-21,90.24
1991-02-22,90.24
1991-02-23,90.24
1991-02-24,90.24
1991-02-25,90.24
1991-02-26,90.24
1991-02-27,90.24
1991-02-28,90.24
1991-03-01,80.16
1991-03-02,70.08
1991-03-03,70.08
1991-03-04,70.08
1991-03-05,70.08
1991-03-06,70.08
1991-03-07,70.08
1991-03-08,70.08
1991-03-09,70.08
1991-03-10,70.08
1991-03-11,35.29
1991-03-12,0.0
1991-03-13,0.0
1991-03-14,0.0
1991-03-15,0.0
1991-03-16,0.0
1991-03-17,0.0
1991-03-18,0.0
1991-03-19,0.0
1991-03-20,34.79
1991-03-21,70.08
1991-03-22,70.08
1991-03-23,70.08
1991-03-24,70.08
1991-03-25,70.08
1991-03-26,70.08
1991-03-27,70.08
1991-03-28,70.08
1991-03-29,70.08
1991-03-30,70.08
1991-03-31,70.08
1991-04-01,80.16
1991-04-02,90.24
1991-04-03,94.78
1991-04-04,99.82
1991-04-05,99.82
1991-04-06,99.82
1991-04-07,49.91
1991-04-08,0.0
1991-04-09,0.0
1991-04-10,0.0
1991-04-11,0.0
1991-04-12,0.0
1991-04-13,0.0
1991-04-14,0.0
1991-04-15,0.0
1991-04-16,0.0
1991-04-17,0.0
1991-04-18,0.0
1991-04-19,0.0
1991-04-20,0.0
1991-04-21,0.0
1991-04-22,0.0
1991-04-23,0.0
1991-04-24,0.0
1991-04-25,0.0
1991-04-26,0.0
1991-04-27,0.0
1991-04-28,0.0
1991-04-29,0.0
1991-04-30,0.0
1991-05-01,0.0
1991-05-02,0.0
1991-05-03,0.0
1991-05-04,0.0
1991-05-05,0.0
1991-05-06,0.0
1991-05-07,0.0
1991-05-08,0.0
1991-05-09,0.0
1991-05-10,0.0
1991-05-11,0.0
1991-05-12,0.0
1991-05-13,0.0
1991-05-14,0.0
1991-05-15,0.0
1991-05-16,0.0
1991-05-17,0.0
1991-05-18,0.0
1991-05-19,0.0
1991-05-20,0.0
1991-05-21,0.0
1991-05-22,0.0
1991-05-23,0.0
1991-05-24,0.0
1991-05-25,0.0
1991-05-26,0.0
1991-05-27,0.0
1991-05-28,0.0
1991-05-29,0.0
1991-05-30,0.0
1991-05-31,0.0
1991-06-01,0.0
1991-06-02,0.0
1991-06-03,0.0
1991-06-04,0.0
1991-06-05,0.0
1991-06-06,0.0
1991-06-07,0.0
1991-06-08,0.0
1991-06-09,0.0
1991-06-10,0.0
1991-06-11,20.17
1991-06-12,87.72
1991-06-13,178.98
1991-06-14,281.83
1991-06-15,299.97
1991-06-16,301.49
1991-06-17,323.17
1991-06-18,361.48
1991-06-19,381.14
1991-06-20,396.77
1991-06-21,415.93
1991-06-22,426.01
1991-06-23,436.1
1991-06-24,450.72
1991-06-25,459.79
1991-06-26,459.79
1991-06-27,459.79
1991-06-28,459.79
1991-06-29,459.79
1991-06-30,459.79
1991-07-01,459.79
1991-07-02,459.79
1991-07-03,459.79
1991-07-04,459.79
1991-07-05,459.79
1991-07-06,459.79
1991-07-07,459.79
1991-07-08,459.79
1991-07-09,459.79
1991-07-10,459.79
1991-07-11,459.79
1991-07-12,459.79
1991-07-13,459.79
1991-07-14,459.79
1991-07-15,459.79
1991-07-16,459.79
1991-07-17,459.79
1991-07-18,459.79
1991-07-19,458.28
1991-07-20,419.96
1991-07-21,419.96
1991-07-22,418.96
1991-07-23,394.25
1991-07-24,378.62
1991-07-25,351.9
1991-07-26,369.55
1991-07-27,354.42
1991-07-28,341.32
1991-07-29,357.45
1991-07-30,386.19
1991-07-31,400.81
1991-08-01,409.38
1991-08-02,394.25
1991-08-03,379.13
1991-08-04,358.46
1991-08-05,324.17
1991-08-06,306.02
1991-08-07,321.65
1991-08-08,340.81
1991-08-09,349.89
1991-08-10,346.36
1991-08-11,360.98
1991-08-12,374.59
1991-08-13,427.53
1991-08-14,454.75
1991-08-15,446.18
1991-08-16,459.29
1991-08-17,444.16
1991-08-18,428.54
1991-08-19,398.79
1991-08-20,370.05
1991-08-21,370.05
1991-08-22,371.57
1991-08-23,389.72
1991-08-24,379.13
1991-08-25,358.96
1991-08-26,338.29
1991-08-27,306.02
1991-08-28,319.13
1991-08-29,298.46
1991-08-30,263.68
1991-08-31,228.89
1991-09-01,200.66
1991-09-02,210.23
1991-09-03,210.23
1991-09-04,213.76
1991-09-05,255.1
1991-09-06,253.59
1991-09-07,221.33
1991-09-08,138.14
1991-09-09,98.31
1991-09-10,58.48
1991-09-11,24.2
1991-09-12,5.04
1991-09-13,10.08
1991-09-14,30.25
1991-09-15,30.25
1991-09-16,31.76
1991-09-17,46.89
1991-09-18,0.0
1991-09-19,0.0
1991-09-20,8.07
1991-09-21,0.0
1991-09-22,0.0
1991-09-23,7.06
1991-09-24,85.71
1991-09-25,85.71
1991-09-26,101.34
1991-09-27,171.41
1991-09-28,185.03
1991-09-29,0.0
1991-09-30,0.0
1991-10-01,0.0
1991-10-02,0.0
1991-10-03,0.0
1991-10-04,0.0
1991-10-05,0.0
1991-10-06,0.0
1991-10-07,0.0
1991-10-08,0.0
1991-10-09,0.0
1991-10-10,0.0
1991-10-11,0.0
1991-10-12,0.0
1991-10-13,0.0
1991-10-14,0.0
1991-10-15,0.0
1991-10-16,0.0
1991-10-17,0.0
1991-10-18,0.0
1991-10-19,0.0
1991-10-20,0.0
1991-10-21,0.0
1991-10-22,0.0
1991-10-23,0.0
1991-10-24,0.0
1991-10-25,0.0
1991-10-26,0.0
1991-10-27,0.0
1991-10-28,0.0
1991-10-29,0.0
1991-10-30,0.0
1991-10-31,0.0
1991-11-01,0.0
1991-11-02,0.0
1991-11-03,0.0
1991-11-04,0.0
1991-11-05,0.0
1991-11-06,0.0
1991-11-07,0.0
1991-11-08,0.0
1991-11-09,0.0
1991-11-10,0.0
1991-11-11,0.0
1991-11-12,0.0
1991-11-13,0.0
1991-11-14,0.0
1991-11-15,44.87
1991-11-16,90.24
1991-11-17,90.24
1991-11-18,90.24
1991-11-19,90.24
1991-11-20,90.24
1991-11-21,90.24
1991-11-22,90.24
1991-11-23,90.24
1991-11-24,90.24
1991-11-25,90.24
1991-11-26,90.24
1991-11-27,90.24
1991-11-28,90.24
1991-11-29,90.24
1991-11-30,90.24
1991-12-01,90.24
1991-12-02,90.24
1991-12-03,90.24
1991-12-04,90.24
1991-12-05,90.24
1991-12-06,90.24
1991-12-07,90.24
1991-12-08,90.24
1991-12-09,90.24
1991-12-10,90.24
1991-12-11,90.24
1991-12-12,90.24
1991-12-13,90.24
1991-12-14,90.24
1991-12-15,90.24
1991-12-16,90.24
1991-12-17,90.24
1991-12-18,90.24
1991-12-19,90.24
1991-12-20,90.24
1991-12-21,90.24
1991-12-22,90.24
1991-12-23,90.24
1991-12-24,90.24
1991-12-25,90.24
1991-12-26,90.24
1991-12-27,90.24
1991-12-28,90.24
1991-12-29,90.24
1991-12-30,90.24
1991-12-31,90.24
1992-01-01,90.24
1992-01-02,90.24
1992-01-03,90.24
1992-01-04,90.24
1992-01-05,90.24
1992-01-06,90.24
1992-01-07,90.24
1992-01-08,90.24
1992-01-09,90.24
1992-01-10,90.24
1992-01-11,90.24
1992-01-12,90.24
1992-01-13,90.24
1992-01-14,90.24
1992-01-15,90.24
1992-01-16,90.24
1992-01-17,90.24
1992-01-18,90.24
1992-01-19,90.24
1992-01-20,90.24
1992-01-21,90.24
1992-01-22,90.24
1992-01-23,90.24
1992-01-24,90.24
1992-01-25,90.24
1992-01-26,90.24
1992-01-27,90.24
1992-01-28,90.24
1992-01-29,90.24
1992-01-30,90.24
1992-01-31,90.24
1992-02-01,90.24
1992-02-02,90.24
1992-02-03,90.24
1992-02-04,90.24
1992-02-05,90.24
1992-02-06,90.24
1992-02-07,90.24
1992-02-08,90.24
1992-02-09,90.24
1992-02-10,90.24
1992-02-11,90.24
1992-02-12,90.24
1992-02-13,90.24
1992-02-14,90.24
1992-02-15,90.24
1992-02-16,90.24
1992-02-17,90.24
1992-02-18,90.24
1992-02-19,90.24
1992-02-20,90.24
1992-02-21,90.24
1992-02-22,90.24
1992-02-23,90.24
1992-02-24,90.24
1992-02-25,90.24
1992-02-26,90.24
1992-02-27,90.24
1992-02-28,90.24
1992-02-29,90.24
1992-03-01,90.24
1992-03-02,90.24
1992-03-03,90.24
1992-03-04,90.24
1992-03-05,90.24
1992-03-06,90.24
1992-03-07,90.24
1992-03-08,90.24
1992-03-09,90.24
1992-03-10,90.24
1992-03-11,90.24
1992-03-12,90.24
1992-03-13,90.24
1992-03-14,90.24
1992-03-15,90.24
1992-03-16,45.12
1992-03-17,45.12
1992-03-18,107.39
1992-03-19,119.99
1992-03-20,119.99
1992-03-21,119.99
1992-03-22,119.99
1992-03-23,119.99
1992-03-24,119.99
1992-03-25,136.63
1992-03-26,150.24
1992-03-27,150.24
1992-03-28,150.24
1992-03-29,150.24
1992-03-30,150.24
1992-03-31,150.24
1992-04-01,262.67
1992-04-02,349.89
1992-04-03,349.89
1992-04-04,349.89
1992-04-05,349.89
1992-04-06,349.89
1992-04-07,349.89
1992-04-08,349.89
1992-04-09,349.89
1992-04-10,320.65
1992-04-11,0.0
1992-04-12,0.0
1992-04-13,0.0
1992-04-14,15.63
1992-04-15,88.73
1992-04-16,141.67
1992-04-17,159.31
1992-04-18,139.15
1992-04-19,113.94
1992-04-20,97.81
1992-04-21,135.11
1992-04-22,159.82
1992-04-23,163.35
1992-04-24,179.48
1992-04-25,169.9
1992-04-26,172.42
1992-04-27,199.14
1992-04-28,283.84
1992-04-29,383.67
1992-04-30,412.4
1992-05-01,431.06
1992-05-02,440.13
1992-05-03,440.13
1992-05-04,442.65
1992-05-05,459.79
1992-05-06,459.79
1992-05-07,459.29
1992-05-08,444.16
1992-05-09,412.91
1992-05-10,252.58
1992-05-11,198.64
1992-05-12,168.89
1992-05-13,139.15
1992-05-14,126.04
1992-05-15,138.64
1992-05-16,169.9
1992-05-17,206.2
1992-05-18,223.85
1992-05-19,291.91
1992-05-20,339.8
1992-05-21,334.76
1992-05-22,207.71
1992-05-23,153.77
1992-05-24,130.07
1992-05-25,132.59
1992-05-26,156.79
1992-05-27,210.23
1992-05-28,247.04
1992-05-29,259.64
1992-05-30,252.58
1992-05-31,270.23
1992-06-01,279.81
1992-06-02,359.47
1992-06-03,429.54
1992-06-04,459.79
1992-06-05,459.79
1992-06-06,459.79
1992-06-07,459.79
1992-06-08,459.79
1992-06-09,459.79
1992-06-10,459.79
1992-06-11,459.79
1992-06-12,459.79
1992-06-13,459.79
1992-06-14,459.79
1992-06-15,458.78
1992-06-16,432.57
1992-06-17,378.12
1992-06-18,329.22
1992-06-19,319.13
1992-06-20,364.51
1992-06-21,349.89
1992-06-22,356.94
1992-06-23,437.11
1992-06-24,459.79
1992-06-25,458.78
1992-06-26,424.5
1992-06-27,414.92
1992-06-28,414.92
1992-06-29,414.92
1992-06-30,414.92
1992-07-01,412.4
1992-07-02,348.37
1992-07-03,309.05
1992-07-04,284.35
1992-07-05,266.2
1992-07-06,283.34
1992-07-07,319.13
1992-07-08,292.92
1992-07-09,249.05
1992-07-10,224.86
1992-07-11,224.86
1992-07-12,222.84
1992-07-13,173.93
1992-07-14,144.19
1992-07-15,131.08
1992-07-16,145.2
1992-07-17,148.22
1992-07-18,187.04
1992-07-19,213.26
1992-07-20,256.11
1992-07-21,327.7
1992-07-22,363.5
1992-07-23,403.83
1992-07-24,374.09
1992-07-25,354.42
1992-07-26,404.34
1992-07-27,394.25
1992-07-28,441.64
1992-07-29,459.79
1992-07-30,459.79
1992-07-31,459.29
1992-08-01,438.11
1992-08-02,388.71
1992-08-03,361.48
1992-08-04,375.6
1992-08-05,384.67
1992-08-06,375.09
1992-08-07,374.59
1992-08-08,359.47
1992-08-09,347.37
1992-08-10,374.59
1992-08-11,362.49
1992-08-12,390.22
1992-08-13,388.2
1992-08-14,349.89
1992-08-15,349.89
1992-08-16,350.89
1992-08-17,358.96
1992-08-18,339.8
1992-08-19,328.71
1992-08-20,294.93
1992-08-21,290.9
1992-08-22,298.46
1992-08-23,263.68
1992-08-24,116.71
1992-08-25,194.1
1992-08-26,169.4
1992-08-27,161.33
1992-08-28,173.93
1992-08-29,152.26
1992-08-30,173.43
1992-08-31,142.17
1992-09-01,164.36
1992-09-02,148.73
1992-09-03,131.59
1992-09-04,398.29
1992-09-05,359.47
1992-09-06,349.89
1992-09-07,349.89
1992-09-08,349.89
1992-09-09,349.89
1992-09-10,349.89
1992-09-11,349.89
1992-09-12,351.9
1992-09-13,370.05
1992-09-14,369.04
1992-09-15,344.84
1992-09-16,343.84
1992-09-17,321.65
1992-09-18,340.81
1992-09-19,349.38
1992-09-20,339.8
1992-09-21,339.3
1992-09-22,324.68
1992-09-23,314.6
1992-09-24,307.54
1992-09-25,334.76
1992-09-26,336.27
1992-09-27,349.38
1992-09-28,341.32
1992-09-29,354.42
1992-09-30,318.63
1992-10-01,0.0
1992-10-02,0.0
1992-10-03,0.0
1992-10-04,0.0
1992-10-05,0.0
1992-10-06,0.0
1992-10-07,0.0
1992-10-08,0.0
1992-10-09,0.0
1992-10-10,0.0
1992-10-11,0.0
1992-10-12,0.0
1992-10-13,0.0
1992-10-14,0.0
1992-10-15,0.0
1992-10-16,0.0
1992-10-17,0.0
1992-10-18,0.0
1992-10-19,0.0
1992-10-20,0.0
1992-10-21,0.0
1992-10-22,0.0
1992-10-23,0.0
1992-10-24,0.0
1992-10-25,0.0
1992-10-26,0.0
1992-10-27,0.0
1992-10-28,0.0
1992-10-29,0.0
1992-10-30,0.0
1992-10-31,0.0
1992-11-01,0.0
1992-11-02,34.79
1992-11-03,70.08
1992-11-04,70.08
1992-11-05,70.08
1992-11-06,70.08
1992-11-07,70.08
1992-11-08,70.08
1992-11-09,70.08
1992-11-10,70.08
1992-11-11,70.08
1992-11-12,70.08
1992-11-13,70.08
1992-11-14,70.08
1992-11-15,70.08
1992-11-16,70.08
1992-11-17,70.08
1992-11-18,70.08
1992-11-19,70.08
1992-11-20,70.08
1992-11-21,70.08
1992-11-22,70.08
1992-11-23,70.08
1992-11-24,70.08
1992-11-25,70.08
1992-11-26,70.08
1992-11-27,70.08
1992-11-28,70.08
1992-11-29,70.08
1992-11-30,70.08
1992-12-01,94.78
1992-12-02,119.99
1992-12-03,119.99
1992-12-04,119.99
1992-12-05,119.99
1992-12-06,119.99
1992-12-07,119.99
1992-12-08,119.99
1992-12-09,119.99
1992-12-10,119.99
1992-12-11,119.99
1992-12-12,119.99
1992-12-13,119.99
1992-12-14,119.99
1992-12-15,119.99
1992-12-16,119.99
1992-12-17,119.99
1992-12-18,119.99
1992-12-19,119.99
1992-12-20,119.99
1992-12-21,119.99
1992-12-22,119.99
1992-12-23,119.99
1992-12-24,119.99
1992-12-25,119.99
1992-12-26,119.99
1992-12-27,119.99
1992-12-28,119.99
1992-12-29,119.99
1992-12-30,119.99
1992-12-31,119.99
1993-01-01,119.99
1993-01-02,119.99
1993-01-03,119.99
1993-01-04,119.99
1993-01-05,119.99
1993-01-06,119.99
1993-01-07,119.99
1993-01-08,119.99
1993-01-09,119.99
1993-01-10,119.99
1993-01-11,119.99
1993-01-12,119.99
1993-01-13,119.99
1993-01-14,119.99
1993-01-15,119.99
1993-01-16,119.99
1993-01-17,119.99
1993-01-18,119.99
1993-01-19,119.99
1993-01-20,119.99
1993-01-21,119.99
1993-01-22,119.99
1993-01-23,119.99
1993-01-24,119.99
1993-01-25,119.99
1993-01-26,119.99
1993-01-27,119.99
1993-01-28,119.99
1993-01-29,119.99
1993-01-30,119.99
1993-01-31,119.99
1993-02-01,119.99
1993-02-02,119.99
1993-02-03,119.99
1993-02-04,119.99
1993-02-05,119.99
1993-02-06,119.99
1993-02-07,119.99
1993-02-08,119.99
1993-02-09,119.99
1993-02-10,119.99
1993-02-11,119.99
1993-02-12,119.99
1993-02-13,119.99
1993-02-14,119.99
1993-02-15,119.99
1993-02-16,119.99
1993-02-17,119.99
1993-02-18,119.99
1993-02-19,119.99
1993-02-20,119.99
1993-02-21,119.99
1993-02-22,119.99
1993-02-23,119.99
1993-02-24,119.99
1993-02-25,119.99
1993-02-26,119.99
1993-02-27,119.99
1993-02-28,119.99
1993-03-01,119.99
1993-03-02,119.99
1993-03-03,119.99
1993-03-04,119.99
1993-03-05,119.99
1993-03-06,119.99
1993-03-07,119.99
1993-03-08,119.99
1993-03-09,119.99
1993-03-10,119.99
1993-03-11,119.99
1993-03-12,119.99
1993-03-13,119.99
1993-03-14,119.99
1993-03-15,119.99
1993-03-16,119.99
1993-03-17,119.99
1993-03-18,119.99
1993-03-19,119.99
1993-03-20,119.99
1993-03-21,119.99
1993-03-22,119.99
1993-03-23,47.39
1993-03-24,0.0
1993-03-25,0.0
1993-03-26,0.0
1993-03-27,0.0
1993-03-28,66.04
1993-03-29,119.99
1993-03-30,119.99
1993-03-31,119.99
1993-04-01,133.1
1993-04-02,266.7
1993-04-03,299.97
1993-04-04,299.97
1993-04-05,299.97
1993-04-06,299.97
1993-04-07,299.97
1993-04-08,299.97
1993-04-09,299.97
1993-04-10,299.97
1993-04-11,299.97
1993-04-12,299.97
1993-04-13,299.97
1993-04-14,299.97
1993-04-15,150.24
1993-04-16,0.0
1993-04-17,0.0
1993-04-18,0.0
1993-04-19,0.0
1993-04-20,0.0
1993-04-21,0.0
1993-04-22,0.0
1993-04-23,0.0
1993-04-24,0.0
1993-04-25,0.0
1993-04-26,0.0
1993-04-27,0.0
1993-04-28,0.0
1993-04-29,0.0
1993-04-30,0.0
1993-05-01,0.0
1993-05-02,0.0
1993-05-03,0.0
1993-05-04,0.0
1993-05-05,0.0
1993-05-06,0.0
1993-05-07,0.0
1993-05-08,0.0
1993-05-09,0.0
1993-05-10,0.0
1993-05-11,0.0
1993-05-12,0.0
1993-05-13,0.0
1993-05-14,0.0
1993-05-15,0.0
1993-05-16,0.0
1993-05-17,0.0
1993-05-18,0.0
1993-05-19,0.0
1993-05-20,0.0
1993-05-21,0.0
1993-05-22,0.0
1993-05-23,0.0
1993-05-24,0.0
1993-05-25,0.0
1993-05-26,0.0
1993-05-27,0.0
1993-05-28,0.0
1993-05-29,0.0
1993-05-30,0.0
1993-05-31,0.0
1993-06-01,0.0
1993-06-02,0.0
1993-06-03,0.0
1993-06-04,0.0
1993-06-05,0.0
1993-06-06,0.0
1993-06-07,0.0
1993-06-08,0.0
1993-06-09,0.0
1993-06-10,0.0
1993-06-11,12.6
1993-06-12,49.91
1993-06-13,53.95
1993-06-14,88.73
1993-06-15,157.3
1993-06-16,213.76
1993-06-17,237.46
1993-06-18,185.03
1993-06-19,183.51
1993-06-20,145.2
1993-06-21,144.19
1993-06-22,129.06
1993-06-23,180.49
1993-06-24,245.53
1993-06-25,306.02
1993-06-26,320.65
1993-06-27,332.24
1993-06-28,359.97
1993-06-29,417.44
1993-06-30,445.68
1993-07-01,418.96
1993-07-02,459.79
1993-07-03,459.79
1993-07-04,449.71
1993-07-05,439.63
1993-07-06,428.54
1993-07-07,399.8
1993-07-08,400.81
1993-07-09,408.87
1993-07-10,378.12
1993-07-11,339.8
1993-07-12,342.32
1993-07-13,368.04
1993-07-14,398.29
1993-07-15,354.93
1993-07-16,354.93
1993-07-17,354.93
1993-07-18,353.92
1993-07-19,329.22
1993-07-20,314.6
1993-07-21,306.02
1993-07-22,314.09
1993-07-23,288.88
1993-07-24,263.17
1993-07-25,219.31
1993-07-26,203.68
1993-07-27,177.46
1993-07-28,211.24
1993-07-29,282.33
1993-07-30,311.07
1993-07-31,327.7
1993-08-01,361.48
1993-08-02,382.66
1993-08-03,413.91
1993-08-04,454.75
1993-08-05,455.26
1993-08-06,459.79
1993-08-07,459.79
1993-08-08,458.78
1993-08-09,432.06
1993-08-10,357.45
1993-08-11,297.45
1993-08-12,239.48
1993-08-13,233.93
1993-08-14,274.77
1993-08-15,277.29
1993-08-16,301.49
1993-08-17,316.61
1993-08-18,336.27
1993-08-19,349.38
1993-08-20,339.3
1993-08-21,385.18
1993-08-22,385.18
1993-08-23,385.68
1993-08-24,394.76
1993-08-25,385.18
1993-08-26,385.18
1993-08-27,383.67
1993-08-28,347.87
1993-08-29,308.04
1993-08-30,342.32
1993-08-31,364.0
1993-09-01,338.29
1993-09-02,299.47
1993-09-03,283.84
1993-09-04,254.6
1993-09-05,243.0
1993-09-06,199.14
1993-09-07,186.03
1993-09-08,195.11
1993-09-09,195.61
1993-09-10,206.71
1993-09-11,223.34
1993-09-12,189.56
1993-09-13,180.99
1993-09-14,188.56
1993-09-15,150.24
1993-09-16,150.24
1993-09-17,148.22
1993-09-18,109.4
1993-09-19,94.78
1993-09-20,93.77
1993-09-21,64.03
1993-09-22,43.86
1993-09-23,22.18
1993-09-24,55.46
1993-09-25,54.95
1993-09-26,54.95
1993-09-27,64.03
1993-09-28,109.4
1993-09-29,101.34
1993-09-30,109.91
1993-10-01,106.88
1993-10-02,20.17
1993-10-03,0.0
1993-10-04,0.0
1993-10-05,0.0
1993-10-06,0.0
1993-10-07,0.0
1993-10-08,0.0
1993-10-09,0.0
1993-10-10,0.0
1993-10-11,0.0
1993-10-12,0.0
1993-10-13,0.0
1993-10-14,0.0
1993-10-15,0.0
1993-10-16,0.0
1993-10-17,0.0
1993-10-18,0.0
1993-10-19,0.0
1993-10-20,0.0
1993-10-21,2.02
1993-10-22,12.1
1993-10-23,12.1
1993-10-24,12.1
1993-10-25,11.09
1993-10-26,12.1
1993-10-27,12.1
1993-10-28,12.1
1993-10-29,12.1
1993-10-30,12.1
1993-10-31,12.1
1993-11-01,12.1
1993-11-02,12.1
1993-11-03,12.1
1993-11-04,12.1
1993-11-05,12.1
1993-11-06,12.1
1993-11-07,12.1
1993-11-08,12.1
1993-11-09,12.1
1993-11-10,12.1
1993-11-11,12.1
1993-11-12,12.1
1993-11-13,12.1
1993-11-14,12.1
1993-11-15,12.1
1993-11-16,12.1
1993-11-17,12.1
1993-11-18,12.1
1993-11-19,12.1
1993-11-20,12.1
1993-11-21,12.1
1993-11-22,12.1
1993-11-23,12.1
1993-11-24,12.1
1993-11-25,12.1
1993-11-26,12.1
1993-11-27,12.1
1993-11-28,12.1
1993-11-29,12.1
1993-11-30,12.1
1993-12-01,12.1
1993-12-02,12.1
1993-12-03,12.1
1993-12-04,12.1
1993-12-05,12.1
1993-12-06,12.1
1993-12-07,13.61
1993-12-08,15.12
1993-12-09,15.12
1993-12-10,15.12
1993-12-11,15.12
1993-12-12,15.12
1993-12-13,15.12
1993-12-14,15.12
1993-12-15,15.12
1993-12-16,15.12
1993-12-17,15.12
1993-12-18,15.12
1993-12-19,15.12
1993-12-20,15.12
1993-12-21,15.12
1993-12-22,15.12
1993-12-23,15.12
1993-12-24,15.12
1993-12-25,15.12
1993-12-26,15.12
1993-12-27,15.12
1993-12-28,15.12
1993-12-29,15.12
1993-12-30,15.12
1993-12-31,15.12
1994-01-01,15.12
1994-01-02,15.12
1994-01-03,15.12
1994-01-04,15.12
1994-01-05,15.12
1994-01-06,15.12
1994-01-07,15.12
1994-01-08,15.12
1994-01-09,15.12
1994-01-10,15.12
1994-01-11,15.12
1994-01-12,15.12
1994-01-13,15.12
1994-01-14,15.12
1994-01-15,15.12
1994-01-16,15.12
1994-01-17,15.12
1994-01-18,15.12
1994-01-19,15.12
1994-01-20,15.12
1994-01-21,15.12
1994-01-22,15.12
1994-01-23,15.12
1994-01-24,15.12
1994-01-25,15.12
1994-01-26,15.12
1994-01-27,15.12
1994-01-28,15.12
1994-01-29,15.12
1994-01-30,15.12
1994-01-31,15.12
1994-02-01,15.12
1994-02-02,15.12
1994-02-03,15.12
1994-02-04,15.12
1994-02-05,15.12
1994-02-06,15.12
1994-02-07,15.12
1994-02-08,15.12
1994-02-09,15.12
1994-02-10,15.12
1994-02-11,15.12
1994-02-12,15.12
1994-02-13,15.12
1994-02-14,15.12
1994-02-15,15.12
1994-02-16,15.12
1994-02-17,15.12
1994-02-18,15.12
1994-02-19,15.12
1994-02-20,15.12
1994-02-21,15.12
1994-02-22,15.12
1994-02-23,15.12
1994-02-24,15.12
1994-02-25,15.12
1994-02-26,15.12
1994-02-27,15.12
1994-02-28,15.12
1994-03-01,15.12
1994-03-02,15.12
1994-03-03,15.12
1994-03-04,15.12
1994-03-05,15.12
1994-03-06,15.12
1994-03-07,15.12
1994-03-08,15.12
1994-03-09,15.12
1994-03-10,15.12
1994-03-11,15.12
1994-03-12,15.12
1994-03-13,15.12
1994-03-14,15.12
1994-03-15,15.12
1994-03-16,15.12
1994-03-17,15.12
1994-03-18,15.12
1994-03-19,15.12
1994-03-20,15.12
1994-03-21,15.12
1994-03-22,15.12
1994-03-23,15.12
1994-03-24,15.12
1994-03-25,15.12
1994-03-26,15.12
1994-03-27,15.12
1994-03-28,15.12
1994-03-29,15.12
1994-03-30,15.12
1994-03-31,15.12
1994-04-01,6.05
1994-04-02,0.0
1994-04-03,0.0
1994-04-04,0.0
1994-04-05,0.0
1994-04-06,0.0
1994-04-07,0.0
1994-04-08,0.0
1994-04-09,0.0
1994-04-10,0.0
1994-04-11,0.0
1994-04-12,0.0
1994-04-13,0.0
1994-04-14,0.0
1994-04-15,0.0
1994-04-16,0.0
1994-04-17,0.0
1994-04-18,0.0
1994-04-19,0.0
1994-04-20,0.0
1994-04-21,0.0
1994-04-22,0.0
1994-04-23,0.0
1994-04-24,0.0
1994-04-25,0.0
1994-04-26,0.0
1994-04-27,0.0
1994-04-28,0.0
1994-04-29,0.0
1994-04-30,0.0
1994-05-01,0.0
1994-05-02,0.0
1994-05-03,0.0
1994-05-04,0.0
1994-05-05,0.0
1994-05-06,0.0
1994-05-07,0.0
1994-05-08,31.26
1994-05-09,74.62
1994-05-10,66.55
1994-05-11,86.21
1994-05-12,101.84
1994-05-13,125.03
1994-05-14,123.52
1994-05-15,91.25
1994-05-16,106.88
1994-05-17,129.06
1994-05-18,176.46
1994-05-19,200.15
1994-05-20,254.6
1994-05-21,241.49
1994-05-22,260.15
1994-05-23,262.16
1994-05-24,288.38
1994-05-25,325.69
1994-05-26,334.76
1994-05-27,334.26
1994-05-28,319.13
1994-05-29,304.01
1994-05-30,289.89
1994-05-31,342.83
1994-06-01,296.45
1994-06-02,313.08
1994-06-03,346.86
1994-06-04,373.08
1994-06-05,406.35
1994-06-06,422.99
1994-06-07,455.26
1994-06-08,459.79
1994-06-09,459.79
1994-06-10,450.21
1994-06-11,450.21
1994-06-12,450.72
1994-06-13,459.79
1994-06-14,458.78
1994-06-15,458.78
1994-06-16,457.78
1994-06-17,457.78
1994-06-18,456.77
1994-06-19,456.77
1994-06-20,455.76
1994-06-21,455.76
1994-06-22,454.75
1994-06-23,454.75
1994-06-24,453.74
1994-06-25,453.74
1994-06-26,453.24
1994-06-27,453.24
1994-06-28,452.23
1994-06-29,452.23
1994-06-30,452.23
1994-07-01,451.22
1994-07-02,451.22
1994-07-03,450.21
1994-07-04,450.21
1994-07-05,440.13
1994-07-06,430.05
1994-07-07,429.04
1994-07-08,407.86
1994-07-09,353.92
1994-07-10,334.76
1994-07-11,325.18
1994-07-12,328.21
1994-07-13,364.0
1994-07-14,340.81
1994-07-15,349.89
1994-07-16,352.41
1994-07-17,382.66
1994-07-18,411.39
1994-07-19,428.03
1994-07-20,459.79
1994-07-21,459.79
1994-07-22,459.79
1994-07-23,458.78
1994-07-24,434.59
1994-07-25,426.52
1994-07-26,445.17
1994-07-27,450.72
1994-07-28,459.29
1994-07-29,441.64
1994-07-30,391.23
1994-07-31,408.87
1994-08-01,384.17
1994-08-02,370.05
1994-08-03,370.05
1994-08-04,373.08
1994-08-05,404.34
1994-08-06,390.22
1994-08-07,389.72
1994-08-08,380.14
1994-08-09,379.13
1994-08-10,363.5
1994-08-11,322.66
1994-08-12,266.7
1994-08-13,282.83
1994-08-14,233.93
1994-08-15,204.18
1994-08-16,183.51
1994-08-17,222.84
1994-08-18,255.61
1994-08-19,261.15
1994-08-20,172.42